Regional Weather Roundup
Issued by NWS

Home | Current Version | Previous Version | Graphics & Text | Print | Product List | Glossary On
Versions: 1 2 3 4 5 6 7 8 9 10 11 12 13 14 15 16 17 18 19 20 21 22 23 24 25 26 27 28 29 30 31 32 33 34 35 36 37 38 39 40 41 42 43 44 45 46 47 48 49 50
134
ASUS43 KMKX 211601
RWRWI

WISCONSIN REGIONAL WEATHER ROUNDUP
NATIONAL WEATHER SERVICE MILWAUKEE/SULLIVAN WI
1100 AM CDT FRI JUL 21 2017

NOTE: "FAIR" INDICATES FEW OR NO CLOUDS BELOW 12,000 FEET WITH NO
SIGNIFICANT WEATHER AND/OR OBSTRUCTIONS TO VISIBILITY.

WIZ001-002-006>008-014>016-023>028-211700-
NORTHWEST WISCONSIN

CITY           SKY/WX    TMP DP  RH WIND       PRES   REMARKS
SUPERIOR ARPT  NOT AVBL
ASHLAND        CLOUDY    75  68  78 E3        29.96F
HAYWARD        CLOUDY    77  66  68 VRB6      29.97R
SIREN          CLOUDY    78  67  69 S13       29.94R HX  80
CUMBERLAND     CLOUDY    73  68  83 S10       29.97S
RICE LAKE      CLOUDY    76  68  77 S10       29.98S
CHETEK         CLOUDY    76  70  80 S6        29.98R
LADYSMITH      CLOUDY    77  68  73 S6        30.00R
EAU CLAIRE     NOT AVBL
MENOMONIE      CLOUDY    74  70  88 SE7       29.96F
NEW RICHMOND   CLOUDY    74  68  82 S10G16    29.95S
OSCEOLA        CLOUDY    76  67  75 SE10G18   29.96R
$$

WIZ003>005-009-010-017-018-211700-
NORTH CENTRAL WISCONSIN

CITY           SKY/WX    TMP DP  RH WIND       PRES   REMARKS
MANITOWISH WTR MOSUNNY   79  66  64 SE3       30.00S HX  81
ARBOR VITAE    CLOUDY    80  65  60 SW6       29.99F HX  81
WOODRUFF       CLOUDY    80  65  60 SW6       29.99F HX  81
RHINELANDER    MOSUNNY   80  65  59 S9        30.02R HX  82
EAGLE RIVER    MOSUNNY   79  62  56 SW3       30.00F HX  80
LAND O LAKES   MOSUNNY   80  62  53 SW5       30.02S HX  82
PHILLIPS       PTSUNNY   78  67  68 SE8       29.99R
TOMAHAWK         N/A     78  63  60 CALM      30.01S HX  80
MEDFORD        PTSUNNY   75  65  70 S9        30.01R
MERRILL        CLOUDY    78  67  68 S3        30.00S HX  81
$$

WIZ029-030-035-036-043>047-211700-
CENTRAL WISCONSIN

CITY           SKY/WX    TMP DP  RH WIND       PRES   REMARKS
WAUSAU         CLOUDY    79  65  62 S9        29.99R HX  81
MOSINEE        MOSUNNY   79  66  65 SE6       30.01S HX  81
MARSHFIELD     CLOUDY    76  66  71 S9        30.00R
STEVENS POINT  CLOUDY    78  64  61 SE5       30.02R HX  80
WAUPACA        CLOUDY    83  66  56 S5        30.00R HX  86
WAUTOMA        CLOUDY    78  70  76 S5        30.01R HX  80
WISC RAPIDS    CLOUDY    77  68  73 CALM      30.03R
CAMP DOUGLAS   NOT AVBL
$$

WIZ011>013-019>022-031-037>040-048>050-211700-
NORTHEAST WISCONSIN

CITY           SKY/WX    TMP DP  RH WIND       PRES   REMARKS
ANTIGO         PTSUNNY   78  65  64 S8        30.02S
SHAWANO        CLOUDY    84  65  53 S6        29.98S HX  86
OCONTO         SUNNY     83  66  55 W7        29.97S HX  85
STURGEON BAY     N/A     82  65  56 SW8       29.99R HX  84
GREEN BAY      MOSUNNY   82  69  64 S3        29.98S HX  85
MANITOWOC      NOT AVBL
APPLETON       PTSUNNY   82  57  42 S7        29.99R HX  82
CLINTONVILLE   CLOUDY    81  64  57 S7        29.99S HX  82
OSHKOSH        MOSUNNY   82  69  64 S5        29.99R HX  85
$$

WIZ032>034-041-042-053>061-211700-
SOUTHWEST WISCONSIN

CITY           SKY/WX    TMP DP  RH WIND       PRES   REMARKS
LA CROSSE      RAIN      73  70  90 SE8       29.97F FOG
SPARTA         LGT RAIN  68  67  98 SW3       30.01F
VIROQUA        CLOUDY    69  69 100 CALM      30.02F
BOSCOBEL       LGT RAIN  72  70  93 VRB3      29.98F FOG
PRAIRIE DU CHI RAIN      72  70  93 CALM      29.97F
PLATTEVILLE    CLOUDY    73  73 100 CALM      29.99F
$$

WIZ056-057-062-063-064-067-068-211700-
SOUTH CENTRAL WISCONSIN

CITY           SKY/WX    TMP DP  RH WIND       PRES   REMARKS
REEDSBURG      CLOUDY    73  71  94 CALM      30.01R
BARABOO/DELLS  PTSUNNY   75  67  74 CALM      30.02R
LONE ROCK      NOT AVBL
MINERAL POINT  LGT RAIN  73  73 100 NE6       29.99F
MADISON        CLOUDY    77  69  76 SE7       29.99F
MIDDLETON      CLOUDY    78  70  78 CALM      30.02R
WATERTOWN      CLOUDY    78  73  85 SW8       30.01R HX  81
MONROE         PTSUNNY   77  72  83 SE7       30.01R
JANESVILLE     PTSUNNY   82  73  74 SE9       29.98F HX  88
$$

WIZ051-052-058>065-066-070>072-211700-
SOUTHEAST WISCONSIN

CITY           SKY/WX    TMP DP  RH WIND       PRES   REMARKS
MILWAUKEE      CLOUDY    80  70  71 S8        30.01R HX  83
WAUKESHA       SUNNY     79  66  65 S8        30.03R HX  81
MILWAUKEE/TIMM SUNNY     81  63  54 S6        30.02R HX  82
RACINE         MOSUNNY   80  73  79 S7        30.03R HX  84
KENOSHA        MOSUNNY   82  71  69 S10       30.01R HX  86
FOND DU LAC    PTSUNNY   83  66  56 S6        30.00R HX  85
SHEBOYGAN      CLOUDY    83  69  62 CALM      30.00R HX  86
WEST BEND      MOSUNNY   81  68  65 E5        30.00R HX  83
JUNEAU         CLOUDY    80  69  68 S7        30.02R HX  83
$$

LSZ147-162-211700-
LAKE SUPERIOR

STATION/POSITION TIME  TEMP    WIND        PRES    WAVE
                       AIR SEA DIR/SP/G            HT/PER
                 (UTC) (F)     (DEG/KT/KT) (MB)    (FT/S)
W MID LAKE BUOY  1450   54 47  160/  8/  8 1014.5R   0
DEVILS ISLAND    1500   65     110/  8/  9 1014.1F
SAXON HARBOR     1540   71      40/  1/  1 1013.9F
$$

LMZ867-665-643>646-211700-
LAKE MICHIGAN

STATION/POSITION TIME  TEMP    WIND        PRES    WAVE
                       AIR SEA DIR/SP/G            HT/PER
                 (UTC) (F)     (DEG/KT/KT) (MB)    (FT/S)
CHAMBERS ISLAND  1540   80     220/  4/  8 1014.2F
S GREEN BAY BUOY 1530   73 73  250/  4/  4 1014.6R
N MID LAKE BUOY  1450   65 66  230/  6/  6 1015.1R   1/ 3
NORTHPORT PIER   1540   73      30/  2/  7 1014.6S
KEWAUNEE LAKESHO 1530   72     160/  5/  6 1014.3R
SHEBOYGAN LAKESH 1500   72      CALM  /  1 1014.6R
PORT WASHINGTON  1540   79     190/  4/  7 1016.3R
ATWATER BUOY     1409   70 67   CALM  /  2 1015.2F
MILWAUKEE LAKESH 1530   73     200/  3/  4   N/A
S MID LAKE BUOY  1450   71 71   50/  6/  6 1014.8F   0
KENOSHA   LAKESH 1500   76     190/  5/  6 1015.6
$$

TC  - TEMPERATURE IN CELSIUS
VSB - VISIBILITY IN STATUTE MILES
WCI - WIND CHILL INDEX
HX  - HEAT INDEX





USA.gov is the U.S. government's official web portal to all federal, state and local government web resources and services.